Regional Weather Roundup
Issued by NWS Glasgow, MT

Home | Current Version | Previous Version | Text Only | Print | Product List | Glossary On
Versions: 1 2 3 4 5 6 7 8 9 10 11 12 13 14 15 16 17 18 19 20 21 22 23 24 25 26 27 28 29 30 31 32 33 34 35 36 37 38 39 40 41 42 43 44 45 46 47 48 49 50
000
ASUS45 KGGW 261715
RWRGGW
HOURLY REGIONAL WEATHER ROUNDUP FOR NORTHEAST MONTANA
NATIONAL WEATHER SERVICE GLASGOW MONTANA
1100 AM MDT MON SEP 26 2016

NOTE: "FAIR" INDICATES FEW OR NO CLOUDS BELOW 12,000 FEET WITH NO
SIGNIFICANT WEATHER AND/OR OBSTRUCTIONS TO VISISBILITY.

NORTHEAST MONTANA


CITY           SKY/WX    TMP DP  RH WIND       PRES   REMARKS
GLASGOW        SUNNY     55  40  56 W3        30.25S
PLENTYWOOD       N/A     61  36  39 SW5         N/A
WOLF POINT     SUNNY     58  43  57 SW8       30.25S
JORDAN           N/A     64  44  48 SW6       30.27F
WINNETT          N/A     66  41  40 SW3G12      N/A
SIDNEY         SUNNY     58  48  69 S7        30.23S
GLENDIVE       SUNNY     60  44  55 NW6       30.25F
MALTA            N/A     61  46  57 W7          N/A
SCOBEY           N/A     61  36  39 CALM      30.19S
OPHEIM           N/A     57  30  35 W7        30.07S

FORT PECK REPORTS


CITY           SKY/WX    TMP DP  RH WIND       PRES   REMARKS
FORT PECK        N/A     58  46  64 S3          N/A
THE PINES        N/A     64  38  38 CALM        N/A

SOUTHEAST MONTANA


CITY           SKY/WX    TMP DP  RH WIND       PRES   REMARKS
BILLINGS       MOSUNNY   60  44  55 SW10      30.34F
MILES CITY     SUNNY     64  39  39 NW7       30.28F
BAKER          SUNNY     57  43  59 W13       30.27R
LIVINGSTON     SUNNY     65  39  38 SW17G26   30.37F

CENTRAL MONTANA


CITY           SKY/WX    TMP DP  RH WIND       PRES   REMARKS
HAVRE          CLOUDY    61  46  57 SW15      30.25S
LEWISTOWN      CLOUDY    63  42  46 SW8       30.32S
GREAT FALLS    SUNNY     65  44  46 SW15      30.27F
CUT BANK       MOSUNNY   65  43  44 SW6       30.25F
HELENA         SUNNY     61  44  53 VRB3      30.36F
BUTTE          SUNNY     53  40  61 CALM      30.45
BOZEMAN        SUNNY     60  45  57 CALM      30.42F

WESTERN MONTANA


CITY           SKY/WX    TMP DP  RH WIND       PRES   REMARKS
MISSOULA       MOSUNNY   52  44  74 CALM      30.40F
KALISPELL      NOT AVBL

NORTH DAKOTA


CITY           SKY/WX    TMP DP  RH WIND       PRES   REMARKS
WILLISTON      SUNNY     60  42  51 S6        30.21F
DICKINSON      SUNNY     61  33  35 NW12G21   30.20F
MINOT          SUNNY     62  35  36 W20       30.12F
BISMARCK       SUNNY     63  34  33 NW18G28   30.16F

SOUTHERN SASKATCHEWAN


CITY           SKY/WX    TMP DP  RH WIND       PRES   REMARKS
REGINA         MOSUNNY   57  37  47 NW8       30.18F
MOOSE JAW      MOSUNNY   61  39  44 W7        30.19F
ESTEVAN        MOSUNNY   59  37  44 NW13G20   30.18R
SWIFT CURRENT  SUNNY     59  37  44 W8        30.20S




USA.gov is the U.S. government's official web portal to all federal, state and local government web resources and services.